Погода в Коломинских Гривах

Россия / Томская область     57°47′40″N   83°08′50″E
темп.,
°C
ветер,
м/с
пор.,
м/с
влажн.,
%
обл.,
%
осадки,
мм/ч
давл.,
гПа
погр.,
м
30 ноября, вт
вт3001:00−7юз51579100 0.0 1023413
04:00−7юз5157598 0.0 1022444
07:00−8юз5147796 0.0 1021395
10:00−9юз51579100 0.0 1020371
13:00−6юз5147839 0.0 1019455
16:00−6юз5137974 0.0 1019412
19:00−7юз51383100 0.0 1019387
22:00−7зюз41290100 0.0 1020359
1 декабря, ср
ср101:00−8зюз399588 0.0 1021247
04:00−9зюз259796 0.1 1023121
07:00−7юз249695 0.1 1024116
10:00−7ююз2596100 0.0 1024142
13:00−5ююз3894100 0.1 1024322
16:00−6ююз41188100 0.1 1022385
19:00−7ююз41384100 0.1 1021366
22:00−6ююз51585100 0.1 1020426
2 декабря, чт
чт201:00−6ююз51580100 0.1 1019413
04:00−5ююз41384100 0.1 1019382
07:00−5ююз41384100 0.1 1018350
10:00−6ююз41381100 0.0 1018343
13:00−4ююз51479100 0.0 1017397
16:00−4ююз51579100 0.0 1016406
19:00−5ююз51679100 0.0 1014391
22:00−5ююз51679100 0.0 1013412
3 декабря, пт
пт301:00−5ююз51877100 0.0 1011414
04:00−5ю5177891 0.0 1009412
07:00−3ю51978100 0.0 1006471
10:00−1ю62069100 0.0 1003654
13:00+1ююз71771100 0.0 1001881
16:000юз61596100 1.2 1000906
19:000зюз51288100 1.5 1001940
22:00−1зюз4108381 0.1 1003694
4 декабря, сб
сб401:00−4з51286100 0.1 1005713
04:00−6зюз4109198 0.1 1008582
07:00−8зюз41292100 0.1 1010553
10:00−7зюз5129199 0.1 1014643
13:00−7юз51190100 0.3 1016711
16:00−7юз51190100 0.1 1017757
19:00−8зюз51290100 0.3 1019746
22:00−9зюз5139099 0.1 1021806